Regional Weather Roundup
Issued by NWS

Home | Current Version | Previous Version | Text Only | Print | Product List | Glossary Off
Versions: 1 2 3 4 5 6 7 8 9 10 11 12 13 14 15 16 17 18 19 20 21 22 23 24 25 26 27 28 29 30 31 32 33 34 35 36 37 38 39 40 41 42 43 44 45 46 47 48 49 50

947
ASUS44 KJAN 311503
RWRMS

MISSISSIPPI HOURLY WEATHER ROUNDUP
NATIONAL WEATHER SERVICE JACKSON MS
1000 AM CDT TUE MAR 31 2015

NOTE: "FAIR: INDICATES FEW OR NO CLOUDS BELOW 12,000 FEET WITH NO
SIGNIFICANT WEATHER AND/OR OBSTRUCTIONS TO VISIBILITY.

MSZ001>002-007>008-010>013-018>021-025>028-034>036-311600-
NORTHWEST MISSISSIPPI

CITY           SKY/WX    TMP DP  RH WIND       PRES   REMARKS
CLARKSDALE     CLOUDY    66  63  88 SW8       30.05R
CLEVELAND      CLOUDY    69  64  85 SW13      30.05R
GREENWOOD      PTSUNNY   70  60  70 SW9G21    30.06R
GREENVILLE     NOT AVBL
OLIVE BRANCH   PTSUNNY   66  61  82 SW6       30.03S
OXFORD         FAIR      64  55  72 CALM      30.06R
TUNICA         CLOUDY    63  55  77 S7        30.04R
$$

MSZ003>006-009-014>017-022>024-029>033-037>039-311600-
NORTHEAST MISSISSIPPI

CITY           SKY/WX    TMP DP  RH WIND       PRES   REMARKS
COLUMBUS AFB   PTSUNNY   66  58  76 W6        30.05S
CORINTH        CLOUDY    64  52  63 CALM      30.02F
GOLDN TRIANGLE PTSUNNY   68  59  73 W7        30.06S
STARKVILLE     FAIR      68  61  77 SW3       30.06F
TUPELO         PTSUNNY   67  55  65 SW3       30.04S
$$

MSZ040-058-311600-
CENTRAL MISSISSIPPI

CITY           SKY/WX    TMP DP  RH WIND       PRES   REMARKS
JACKSON INTL   PTSUNNY   72  59  63 SW10      30.10S
JACKSON HAWKNS MOSUNNY   69  60  73 W12       30.11R
MERIDIAN KEY   MOSUNNY   70  60  70 W12       30.11S
MERIDIAN NAS   NOT AVBL
RAYMOND        CLOUDY    68  63  83 SW13      30.11S
VICKSBURG      CLOUDY    68  60  75 W9        30.11R
$$

MSZ059>079-311600-
SOUTH MISSISSIPPI

CITY           SKY/WX    TMP DP  RH WIND       PRES   REMARKS
BROOKHAVEN     CLOUDY    64  63  94 SW9       30.15R
HATTIESBURG    SUNNY     73  60  63 SW13      30.14R
MCCOMB         MOSUNNY   69  61  75 W10G16    30.13S
NATCHEZ        CLOUDY    66  61  82 W9        30.13S
PINE BELT      SUNNY     68  61  77 SW8       30.15S
$$

MSZ080>082-311600-
COASTAL MISSISSIPPI

CITY           SKY/WX    TMP DP  RH WIND       PRES   REMARKS
BILOXI         MOSUNNY   73  67  79 SW10      30.14R
PASCAGOULA     PTSUNNY   74  64  71 SW6       30.15R
GULFPORT       PTSUNNY   73  63  70 SW9       30.14R
$$



USA.gov is the U.S. government's official web portal to all federal, state and local government web resources and services.